EHI
0 0 0 0 0 0 0 0 0 0 0 0 0 0 0 0 0 0 0 0 0 0 0 0 0 0 0 0 0 0 0 0 0 0 0 0 0 0 0 0 0 0 0 0
0 0 0 0 0 0 0 0 0 0 0 0 0 0 0 0 0 0 0 0 0 0 0 0 0 0 0 0 0 0 0 0 0 0 0 0 0 0 0 0 0 0 0 0
0 0 0 0 0 0 0 0 0 0 0 0 0 0 0 0 0 0 0 0 0 0 0 0 0 0 0 0 0 0 0 0 0 0 0 0 0 0 0 0 0 0 0 0
0 0 0 0 0 0 0 0 0 0 0 0 0 0 0 0 0 0 0 0 0 0 0 0 0 0 0 0 0 0 0 0 0 0 0 0 0 0 0 0 0 0 0 0
0 0 0 0 0 0 0 0 0 0 0 0 0 0 0 0 0 0 0 0 0 0 0 0 0 0 0 0 0 0 0 0 0 0 0 0 0 0 0 0 0 0 0 0
0 0 0 0 0 0 0 0 0 0 0 0 0 0 0 0 0 0 0 0 0 0 0 0 0 0 0 0 0 0 0 0 0 0 0 0 0 0 0 0 0 0 0 0
0 0 0 0 0 0 0 0 0 0 0 0 0 0 0 0 0 0 0 0 0 0 0 0 0 0 0 0 0 0 0 0 0 0 0 0 0 0 0 0 0 0 0 0
0 0 0 0 0 0 0 0 0 0 0 0 0 0 0 0 0 0 0 0 0 0 0 0 0 0 0 0 0 0 0 0 0 0 0 0 0 0 0 0 0 0 0 0
0 0 0 0 0 0 0 0 0 0 0 0 0 0 0 0 0 0 0 0 0 0 0 0 0 0 0 0 0 0 0 0 0 0 0 0 0 0 0 0 0 0 0 0
0 0 0 0 0 0 0 0 0 0 0 0 0 0 0 0 0 0 0 0 0 0 0 0 0 0 0 0 0 0 0 0 0 0 0 0 0 0 0 0 0 0 0 0
0 0 0 0 0 0 0 0 0 0 0 0 0 0 0 0 0 0 0 0 0 0 0 0 0 0 0 0 0 0 0 0 0 0 0 0 0 0 0 0 0 0 0 0
0 0 0 0 0 0 0 0 0 0 0 0 0 0 0 0 0 0 0 0 0 0 0 0 0 0 0 0 0 0 0 0 0 0 0 0 0 0 0 0 0 0 0 0
0 0 0 0 0 0 0 0 0 0 0 0 0 0 0 0 0 0 0 0 0 0 0 0 0 0 0 0 0 0 0 0 0 0 0 0 0 0 0 0 0 0 0 0
0 0 0 0 0 0 0 0 0 0 0 0 0 0 0 0 0 0 0 0 0 0 0 0 0 0 0 0 0 0 0 0 0 0 0 0 0 0 0 0 0 0 0 0
0 0 0 0 0 0 0 0 0 0 0 0 0 0 0 0 0 0 0 0 0 0 0 0 0 0 0 0 0 0 0 0 0 0 0 0 0 0 0 0 0 0 0 0
0 0 0 0 0 0 0 0 0 0 0 0 0 0 0 0 0 0 0 0 0 0 0 0 0 0 0 0 0 0 0 0 0 0 0 0 0 0 0 0 0 0 0 0
0 0 0 0 0 0 0 0 0 0 0 0 0 0 0 0 0 0 0 0 0 0 0 0 0 0 0 0 0 0 0 0 0 0 0 0 0 0 0 0 0 0 0 0
0 0 0 0 0 0 0 0 0 0 0 0 0 0 0 0 0 0 0 0 0 0 0 0 0 0 0 0 0 0 0 0 0 0 0 0 0 0 0 0 0 0 0 0
0 0 0 0 0 0 0 0 0 0 0 0 0 0 0 0 0 0 0 0 0 0 0 0 0 0 0 0 0 0 0 0 0 0 0 0 0 0 0 0 0 0 0 0
0 0 0 0 0 0 0 0 0 0 0 0 0 0 0 0 0 0 0 0 0 0 0 0 0 0 0 0 0 0 0 0 0 0 0 0 0 0 0 0 0 0 0 0
0 0 0 0 0 0 0 0 0 0 0 0 0 0 0 0 0 0 0 0 0 0 0 0 0 0 0 0 0 0 0 0 0 0 0 0 0 0 0 0 0 0 0 0
0 0 0 0 0 0 0 0 0 0 0 0 0 0 0 0 0 0 0 0 0 0 0 0 0 0 0 0 0 0 0 0 0 0 0 0 0 0 0 0 0 0 0 0
0 0 0 0 0 0 0 0 0 0 0 0 0 0 0 0 0 0 0 0 0 0 0 0 0 0 0 0 0 0 0 0 0 0 0 0 0 0 0 0 0 0 0 0
0 0 0 0 0 0 0 0 0 0 0 0 0 0 0 0 0 0 0 0 0 0 0 0 0 0 0 0 0 0 0 0 0 0 0 0 0 0 0 0 0 0 0 0
0 0 0 0 0 0 0 0 0 0 0 0 0 0 0 0 0 0 0 0 0 0 0 0 0 0 0 0 0 0 0 0 0 0 0 0 0 0 0 0 0 0 0 0
0 0 0 0 0 0 0 0 0 0 0 0 0 0 0 0 0 0 0 0 0 0 0 0 0 0 0 0 0 0 0 0 0 0 0 0 0 0 0 0 0 0 0 0
0 0 0 0 0 0 0 0 0 0 0 0 0 0 0 0 0 0 0 0 0 0 0 0 0 0 0 0 0 0 0 0 0 0 0 0 0 0 0 0 0 0 0 0
Wind_Speed
9 7 6 8 10 11 13 13 12 13 13 10 7 6 5 3 2 1 1 1 1 2 2 2 3 3 3 3 3 4 4 4 4 3 3 3 3 3 3 3 3 3 3 3
7 6 6 9 11 12 13 13 15 14 14 7 6 4 3 3 3 3 2 2 1 2 2 2 3 3 3 3 3 4 4 4 3 3 3 3 3 3 3 3 3 3 4 3
5 3 5 9 9 10 9 8 9 12 9 4 5 4 4 3 3 3 3 2 1 1 2 2 2 3 3 3 3 3 3 3 3 3 3 3 3 3 3 3 3 3 3 4
3 2 9 2 2 4 6 5 4 5 5 4 5 4 3 3 3 3 2 2 2 1 1 1 2 2 2 2 3 3 3 3 3 3 3 3 3 3 3 3 3 3 4 4
4 6 8 3 1 1 4 4 2 5 5 4 3 2 1 2 3 3 2 2 2 1 1 1 2 2 2 2 2 2 2 2 2 3 3 3 3 2 2 3 3 3 3 4
5 6 7 1 3 4 3 4 2 3 4 3 2 3 1 4 4 3 2 1 1 1 1 1 2 2 2 2 2 2 1 1 2 2 3 3 3 2 2 2 3 3 3 3
7 7 5 3 4 2 3 3 4 3 3 2 2 3 3 4 4 3 2 2 1 1 1 1 1 2 2 1 1 1 1 1 2 2 2 2 2 2 2 2 2 2 2 2
4 6 4 3 2 0 3 4 3 3 3 2 2 3 3 4 4 3 3 2 2 2 2 2 1 1 1 0 0 0 1 1 1 1 1 1 2 2 2 2 2 2 2 2
3 2 3 2 1 3 3 3 3 3 3 2 2 2 3 4 4 3 3 2 2 2 2 2 2 1 1 0 0 0 0 0 0 1 1 1 1 1 1 1 1 1 1 2
3 2 2 3 4 4 4 3 3 3 2 2 2 2 3 3 3 3 2 2 2 2 2 2 2 2 1 1 0 0 1 1 0 1 1 1 1 1 1 2 2 2 2 2
3 3 3 2 4 4 4 4 3 3 3 2 2 2 3 3 3 3 2 2 1 1 1 1 2 2 1 1 0 0 0 1 1 1 1 1 1 1 1 2 2 2 2 2
3 3 3 4 4 4 3 3 3 3 3 3 2 2 3 3 2 2 2 2 1 1 1 1 2 2 2 1 0 1 1 1 0 0 0 1 0 1 1 2 3 4 4 4
3 4 3 3 3 4 3 3 3 3 3 3 3 2 2 2 2 2 2 2 2 2 2 2 2 2 2 1 0 0 0 0 0 0 0 1 1 1 1 1 2 2 3 4
3 2 2 2 3 4 3 3 3 3 3 3 3 3 3 2 3 3 3 3 2 2 2 2 2 2 2 2 1 0 0 1 1 1 1 1 1 1 1 1 2 2 2 4
4 3 1 2 2 3 3 3 3 3 3 4 3 3 3 3 3 3 3 3 2 2 2 2 2 2 2 1 1 1 1 0 1 1 1 1 1 1 1 2 2 2 2 3
4 3 2 2 2 3 3 3 3 3 3 3 3 3 3 3 3 3 3 3 2 2 2 2 2 2 2 1 1 1 1 1 1 1 1 1 1 1 1 2 2 2 3 3
2 2 3 3 3 3 3 3 2 2 3 3 3 3 3 3 3 3 3 3 2 2 2 2 2 2 2 1 1 1 1 1 1 1 1 1 1 2 2 2 2 3 3 4
2 2 2 2 2 2 3 3 2 2 2 2 2 2 2 2 2 3 4 3 3 3 3 3 3 2 2 1 1 1 1 1 1 1 1 1 2 2 2 3 3 4 3 4
3 2 2 2 2 2 2 2 2 2 2 2 2 2 2 2 2 3 3 3 3 3 4 3 4 3 2 2 2 1 1 1 1 2 2 2 2 2 3 3 3 4 4 4
3 3 3 3 3 2 2 2 2 2 2 2 1 2 2 2 2 2 2 3 3 3 4 4 4 3 3 3 2 1 2 2 2 2 2 2 3 3 3 3 4 4 4 4
3 3 3 3 3 3 2 2 2 2 2 2 2 2 3 3 3 2 2 3 3 4 4 5 3 3 3 2 2 2 2 2 3 3 3 3 3 3 3 4 4 4 4 4
2 2 2 2 2 3 3 3 2 2 2 2 2 2 3 3 3 3 3 3 4 6 4 3 3 4 4 2 2 2 2 3 3 3 3 3 3 4 4 4 4 4 5 5
2 2 2 2 2 3 3 3 2 2 3 3 3 3 4 4 3 3 4 3 4 6 5 3 5 6 5 2 2 2 3 3 3 3 3 4 4 4 4 5 5 5 5 5
2 2 2 2 2 2 3 4 3 3 3 3 3 4 4 4 3 3 4 6 7 7 4 5 7 7 5 2 2 2 3 3 4 4 4 4 4 4 5 5 5 5 5 7
2 2 2 2 2 2 3 3 3 4 4 3 4 4 3 3 4 4 4 5 7 7 5 5 7 7 4 3 3 3 3 4 4 4 4 4 4 5 5 5 5 6 6 6
2 2 2 2 2 2 2 2 3 3 3 4 4 4 4 3 4 4 4 4 6 6 5 4 4 4 3 3 4 4 4 4 5 4 5 5 5 6 5 6 7 6 6 6
2 2 2 2 2 2 3 3 3 4 4 4 5 4 4 4 4 4 5 4 4 4 4 3 3 3 3 4 4 4 4 4 4 5 5 5 5 5 6 7 6 6 6 7
Wind_Direction
266 276 257 249 244 230 227 237 248 260 264 277 286 291 298 291 265 236 242 251 210 190 181 174 169 167 166 166 166 167 171 176 179 179 179 184 187 193 199 206 215 219 225 231
261 257 264 263 257 243 241 246 251 264 269 289 298 294 285 273 264 265 267 255 231 198 186 184 178 175 171 170 163 166 173 176 171 171 176 186 189 195 202 209 219 223 227 230
260 277 273 257 248 235 233 234 241 254 272 302 291 281 283 281 266 264 271 269 252 227 208 205 194 184 180 172 164 167 170 173 174 174 177 189 193 197 205 212 219 228 232 233
257 251 243 265 18 254 237 245 258 274 299 299 298 300 307 299 291 288 286 274 265 246 224 211 185 169 159 157 162 165 167 176 179 182 188 192 198 207 214 221 227 235 238 238
224 245 261 260 346 280 237 247 296 284 294 314 327 292 316 8 335 309 301 292 281 269 218 157 152 145 141 150 158 164 170 183 189 193 194 198 206 217 224 226 232 239 239 236
221 238 250 324 358 319 248 237 359 316 303 313 317 280 350 10 347 337 340 338 346 7 98 129 127 133 140 152 167 178 186 202 205 206 205 207 211 223 231 234 238 244 247 239
229 241 263 14 337 279 220 326 357 336 330 321 309 321 340 338 342 348 360 8 24 59 82 90 113 130 139 153 193 197 195 202 207 212 214 211 211 220 227 236 243 247 246 248
216 229 250 35 51 273 332 340 331 335 341 339 337 335 337 345 352 1 13 23 35 54 44 44 79 120 131 153 11 159 189 210 215 215 216 206 209 217 219 222 232 245 242 256
220 241 12 18 355 342 329 315 323 327 331 334 332 337 347 350 354 360 13 26 39 56 49 33 33 64 104 12 82 131 177 246 237 207 211 208 207 207 212 220 233 251 256 255
250 272 317 332 346 350 351 342 340 335 330 333 328 336 346 349 352 357 7 20 36 57 54 26 15 20 20 5 19 176 203 244 237 204 206 206 218 217 225 229 238 252 264 274
263 298 314 317 347 355 358 359 0 2 4 359 357 349 349 346 348 351 355 6 25 49 42 9 5 6 5 10 69 185 215 228 232 220 206 218 242 253 255 253 266 270 269 272
279 310 299 309 337 347 351 352 358 3 7 10 10 355 349 344 344 347 350 2 16 21 17 359 356 354 354 358 204 197 218 227 237 230 220 235 250 303 308 296 300 295 296 300
303 328 324 317 343 2 3 1 1 5 7 3 4 358 348 347 350 356 356 0 2 354 351 350 351 348 349 350 340 201 224 263 272 261 244 252 261 278 309 329 314 310 315 322
340 342 336 349 355 0 7 11 16 17 14 10 3 2 0 356 354 355 351 347 345 348 352 354 353 343 345 354 352 339 310 289 281 259 253 254 263 274 282 295 308 318 324 325
3 356 332 345 5 7 13 18 19 12 10 10 9 3 358 351 343 341 342 345 353 357 354 352 348 339 343 347 333 321 314 311 305 285 271 268 277 287 293 297 303 311 315 317
345 5 22 28 13 5 5 5 1 351 353 354 356 354 349 344 340 340 344 351 353 346 338 334 331 331 335 331 328 326 335 337 329 308 271 269 275 283 291 295 299 303 307 315
350 348 354 351 348 345 341 338 336 331 335 338 339 342 346 349 352 352 352 354 345 326 318 316 319 324 326 322 315 318 327 323 314 298 278 273 276 281 285 284 285 290 294 298
325 313 303 290 294 314 329 341 342 337 330 329 334 338 342 344 339 336 337 342 345 342 335 331 320 320 319 308 298 297 296 288 279 278 279 276 282 278 277 279 282 285 290 293
5 2 356 347 335 328 329 334 334 331 328 327 329 329 328 326 326 328 333 339 333 330 332 327 319 325 313 298 292 277 279 278 278 278 278 278 282 278 278 279 281 284 288 290
7 8 10 8 8 7 346 340 338 332 330 328 331 333 333 332 330 327 328 319 309 308 314 314 314 307 297 282 278 268 266 267 270 274 274 275 277 279 280 280 280 281 281 281
358 3 7 6 5 5 358 347 342 337 338 338 327 316 316 320 322 316 312 314 321 318 311 312 316 304 292 285 270 265 263 266 269 270 271 274 275 276 276 277 278 279 279 280
344 350 353 354 358 355 355 353 347 338 335 332 323 314 311 314 317 313 299 291 306 314 315 308 304 298 302 298 278 270 266 266 267 268 267 268 269 271 272 274 274 275 275 276
328 331 336 336 333 337 346 346 339 331 324 318 311 306 303 304 305 303 307 308 306 307 309 298 300 304 308 306 294 280 273 270 270 268 267 269 270 270 270 270 270 271 272 273
328 331 330 332 342 347 339 335 332 325 317 310 306 302 299 300 301 295 293 309 315 311 305 300 305 307 314 306 291 281 275 273 271 270 270 271 270 268 266 267 268 269 269 271
340 339 343 344 339 327 322 325 328 327 323 318 316 313 304 295 294 303 304 302 306 310 306 307 308 309 308 291 282 276 273 268 268 271 268 268 268 269 269 269 268 269 269 269
339 331 329 325 319 316 318 320 321 322 320 317 318 318 315 308 301 299 299 302 302 306 306 302 300 299 290 283 278 276 273 276 280 277 272 271 270 270 270 269 270 267 268 267
343 340 336 337 338 329 322 319 316 315 315 311 309 313 314 313 311 308 305 303 305 304 301 299 297 292 288 287 284 280 277 275 273 272 271 269 268 268 269 269 269 269 268 267